Regional Weather Roundup
Issued by NWS

Home | Current Version | Previous Version | Graphics & Text | Print | Product List | Glossary On
Versions: 1 2 3 4 5 6 7 8 9 10 11 12 13 14 15 16 17 18 19 20 21 22 23 24 25 26 27 28 29 30 31 32 33 34 35 36 37 38 39 40 41 42 43 44 45 46 47 48 49 50
000
ASUS43 KMKX 181521
RWRWI

WISCONSIN REGIONAL WEATHER ROUNDUP
NATIONAL WEATHER SERVICE MILWAUKEE/SULLIVAN WI
1000 AM CDT WED OCT 18 2017

NOTE: "FAIR" INDICATES FEW OR NO CLOUDS BELOW 12,000 FEET WITH NO
SIGNIFICANT WEATHER AND/OR OBSTRUCTIONS TO VISIBILITY.

WIZ001-002-006>008-014>016-023>028-181600-
NORTHWEST WISCONSIN

CITY           SKY/WX    TMP DP  RH WIND       PRES   REMARKS
SUPERIOR ARPT  CLOUDY    61  46  56 S10       29.69F
ASHLAND        SUNNY     60  45  57 S15G22    29.74F
HAYWARD        SUNNY     58  45  62 S12       29.78F
SIREN          SUNNY     59  45  58 S9        29.77S
CUMBERLAND     SUNNY     54  45  71 S15G22    29.82S
RICE LAKE      SUNNY     57  47  68 SE9       29.84F
CHETEK         SUNNY     57  48  72 S14       29.84F
LADYSMITH      SUNNY     56  47  70 S9        29.87F
EAU CLAIRE     SUNNY     57  47  69 S12       29.86F
MENOMONIE      SUNNY     58  48  69 S9        29.86F
NEW RICHMOND   SUNNY     58  46  63 S10       29.81F
OSCEOLA        SUNNY     58  47  68 SE8       29.81F
$$

WIZ003>005-009-010-017-018-181600-
NORTH CENTRAL WISCONSIN

CITY           SKY/WX    TMP DP  RH WIND       PRES   REMARKS
MANITOWISH WTR SUNNY     54  47  75 S10       29.85F
ARBOR VITAE    SUNNY     57  47  71 SW14G20   29.87S
WOODRUFF       SUNNY     57  47  71 SW14G20   29.87S
RHINELANDER    SUNNY     57  46  66 SW12      29.89F
EAGLE RIVER    SUNNY     56  44  64 SW6       29.87F
LAND O LAKES   SUNNY     57  45  64 S7        29.88S
PHILLIPS       SUNNY     55  46  70 S8        29.86F
TOMAHAWK       SUNNY     55  46  70 S5        29.90S
MEDFORD        SUNNY     55  45  69 S12       29.90F
MERRILL        SUNNY     57  46  65 SW9       29.92F
$$

WIZ029-030-035-036-043>047-181600-
CENTRAL WISCONSIN

CITY           SKY/WX    TMP DP  RH WIND       PRES   REMARKS
WAUSAU         SUNNY     55  45  68 SW12      29.92S
MOSINEE        SUNNY     55  46  71 S13       29.94S
MARSHFIELD     SUNNY     56  45  66 SW15      29.92S
STEVENS POINT  SUNNY     55  45  67 SW15      29.95S
WAUPACA        SUNNY     59  46  63 S12       29.96F
WAUTOMA        SUNNY     57  45  64 S14G21    29.98F
WISC RAPIDS    SUNNY     57  46  66 SW15      29.96S
CAMP DOUGLAS   SUNNY     57  46  67 S9        29.96F
$$

WIZ011>013-019>022-031-037>040-048>050-181600-
NORTHEAST WISCONSIN

CITY           SKY/WX    TMP DP  RH WIND       PRES   REMARKS
ANTIGO         SUNNY     56  46  71 SW9       29.94R
SHAWANO        SUNNY     59  47  63 SW5       29.94F
OCONTO         SUNNY     58  46  64 S10G16    29.95F
STURGEON BAY   SUNNY     59  46  62 S15G21    29.97F
GREEN BAY      SUNNY     58  48  69 S17G24    29.97F
MANITOWOC      SUNNY     58  45  62 S15       30.01F
APPLETON       SUNNY     55  43  62 S17       29.97F
CLINTONVILLE   SUNNY     57  45  62 S9        29.95F
OSHKOSH        SUNNY     57  45  64 S16G24    29.98F
$$

WIZ032>034-041-042-053>061-181600-
SOUTHWEST WISCONSIN

CITY           SKY/WX    TMP DP  RH WIND       PRES   REMARKS
LA CROSSE      SUNNY     59  47  64 S13       29.93F
SPARTA         SUNNY     57  46  67 S13       29.95S
VIROQUA        SUNNY     56  47  72 S10G17    29.97R
BOSCOBEL       SUNNY     61  46  57 S9G18     30.00F
PRAIRIE DU CHI SUNNY     58  44  59 S8        29.99S
PLATTEVILLE    SUNNY     57  47  69 S14G20    30.03F
$$

WIZ056-057-062-063-064-067-068-181600-
SOUTH CENTRAL WISCONSIN

CITY           SKY/WX    TMP DP  RH WIND       PRES   REMARKS
REEDSBURG      SUNNY     56  45  66 S14G21    29.99F
BARABOO/DELLS  SUNNY     56  43  63 SW17      29.99F
LONE ROCK      SUNNY     57  48  72 S12       30.01F
MINERAL POINT  SUNNY     59  46  63 S15       30.03F
MADISON        SUNNY     56  43  61 S14G20    30.04F
MIDDLETON      SUNNY     57  45  63 S8        30.04F
WATERTOWN      SUNNY     58  45  62 S15       30.06S
MONROE         SUNNY     55  43  62 S17G23    30.06S
JANESVILLE     SUNNY     59  43  55 S12       30.08F
$$

WIZ051-052-058>065-066-070>072-181600-
SOUTHEAST WISCONSIN

CITY           SKY/WX    TMP DP  RH WIND       PRES   REMARKS
MILWAUKEE      SUNNY     60  43  53 SW12      30.09F
WAUKESHA       SUNNY     55  41  58 S14       30.09F
MILWAUKEE/TIMM SUNNY     59  39  47 S9        30.08F
RACINE         SUNNY     59  43  55 SW13      30.11F
BURLINGTON     SUNNY     58  45  61 S12       30.10F
KENOSHA        SUNNY     59  42  53 S14       30.11F
FOND DU LAC    SUNNY     60  42  51 S15G26    30.01F
SHEBOYGAN      SUNNY     60  47  61 SW14      30.04F
WEST BEND      SUNNY     59  41  51 S12       30.05F
JUNEAU         SUNNY     57  44  60 S15       30.05F
$$

LSZ147-162-181600-
LAKE SUPERIOR

STATION/POSITION TIME  TEMP    WIND        PRES    WAVE
                       AIR SEA DIR/SP/G            HT/PER
                 (UTC) (F)     (DEG/KT/KT) (MB)    (FT/S)
W MID LAKE BUOY  1450   55 53              1005.7F   3/ 5
DEVILS ISLAND    1500   58     180/ 10/ 14 1005.8F
PORT WING        1440          210/ 10/ 21 1006.4
SAXON HARBOR     1440   62     190/ 11/ 20 1006.8F
$$

LMZ867-665-643>646-181600-
LAKE MICHIGAN

STATION/POSITION TIME  TEMP    WIND        PRES    WAVE
                       AIR SEA DIR/SP/G            HT/PER
                 (UTC) (F)     (DEG/KT/KT) (MB)    (FT/S)
S GREEN BAY BUOY 1500   58 58  190/ 17/ 19 1014.1
N MID LAKE BUOY  1450   60 59  190/ 23/ 27 1014.7F   6/ 6
NORTHPORT PIER   1440   60     180/  8/ 13 1014.2F
KEWAUNEE LAKESHO 1454   56     180/ 16/ 19 1014.8F
SHEBOYGAN LAKESH 1500   56     180/ 15/ 16 1017.0F
PORT WASHINGTON  1440   63     200/  7/ 10 1018.6F
ATWATER BUOY     1409   56 53  190/ 12/ 16 1018.7F
MILWAUKEE LAKESH 1500   58     200/ 11/ 13   N/A
S MID LAKE BUOY  1450   59 61  220/ 17/ 21 1020.4F   4/ 6
KENOSHA   LAKESH 1500   60     210/  8/ 16 1019.3
$$

TC  - TEMPERATURE IN CELSIUS
VSB - VISIBILITY IN STATUTE MILES
WCI - WIND CHILL INDEX
HX  - HEAT INDEX




USA.gov is the U.S. government's official web portal to all federal, state and local government web resources and services.